Date String (YYYY-MM-DD hh:mm:ss) UTC,Instrument flags,Ambient pressure (hPa),Sample flow (lpm),Bypass flow (lpm),Sample temperature (°C),Ambient temperature (°C),ASC tube jacket temperature (°C),LED temperature (°C),Box temperature (°C),Sample RH (%),Span deviation,Mass concentration (μg/m³),Mass concentration (μg/m³),Mass concentration (μg/m³)
DateTimeUTC,F1_M11,P_M11,Q1_M11,Q2_M11,T1_M11,T2_M11,T3_M11,T4_M11,T5_M11,U1_M11,ZSPAN_M11,X0_M11,X2_M11,X1_M11
2021-12-10 08:00:00,,0809.4,5.00,0.00,24.0,23.1,00.0,33.0,25.8,13.9,0000.0,0018.73,0004.17,0001.94
2021-12-10 08:01:00,,0809.3,4.99,0.00,24.0,23.1,00.0,33.0,25.7,13.9,0000.0,0017.97,0004.24,0001.95
2021-12-10 08:02:00,,0809.3,4.99,0.00,24.0,23.2,00.0,33.0,25.7,13.9,0000.0,0017.29,0004.25,0001.94
2021-12-10 08:03:00,,0809.4,5.02,0.00,24.0,23.1,00.0,33.0,25.7,13.9,0000.0,0016.82,0004.24,0001.93
2021-12-10 08:04:00,,0809.4,4.99,0.00,24.0,23.1,00.0,33.0,25.7,13.9,0000.0,0016.82,0004.19,0001.92
2021-12-10 08:05:00,,0809.4,4.99,0.00,24.0,23.1,00.0,33.0,25.7,13.9,0000.0,0016.64,0004.16,0001.90
2021-12-10 08:06:00,,0809.4,5.00,0.00,24.0,23.1,00.0,33.0,25.7,13.9,0000.0,0015.70,0004.08,0001.87
2021-12-10 08:07:00,,0809.4,5.01,0.00,24.0,23.1,00.0,33.0,25.7,13.9,0000.0,0015.27,0004.11,0001.86
2021-12-10 08:08:00,,0809.4,5.00,0.00,24.0,23.1,00.0,33.0,25.7,13.9,0000.0,0014.39,0004.12,0001.84
2021-12-10 08:09:00,,0809.4,4.98,0.00,24.0,23.1,00.0,33.0,25.7,13.9,0000.0,0013.55,0004.08,0001.84
2021-12-10 08:10:00,,0809.3,4.99,0.00,24.0,23.1,00.0,32.9,25.7,13.9,0000.0,0013.71,0004.05,0001.84
2021-12-10 08:11:00,,0809.3,4.99,0.00,24.0,23.1,00.0,32.9,25.7,13.9,0000.0,0012.83,0004.03,0001.82
2021-12-10 08:12:00,,0809.2,5.01,0.00,24.0,23.1,00.0,32.9,25.7,13.9,0000.0,0012.90,0003.95,0001.80
2021-12-10 08:13:00,,0809.2,5.00,0.00,24.0,23.1,00.0,32.9,25.7,13.9,0000.0,0013.46,0003.97,0001.78
2021-12-10 08:14:00,,0809.3,4.99,0.00,24.0,23.1,00.0,32.9,25.7,13.9,0000.0,0013.52,0003.97,0001.77
2021-12-10 08:15:00,,0809.3,5.00,0.00,24.0,23.1,00.0,32.9,25.7,13.9,0000.0,0013.77,0003.99,0001.77
2021-12-10 08:16:00,,0809.3,4.99,0.00,23.9,23.1,00.0,32.9,25.7,13.9,0000.0,0013.16,0003.97,0001.75
2021-12-10 08:17:00,,0809.3,5.01,0.00,23.9,23.1,00.0,32.9,25.7,13.9,0000.0,0013.78,0003.98,0001.75
2021-12-10 08:18:00,,0809.3,4.99,0.00,23.9,23.1,00.0,32.9,25.7,13.9,0000.0,0014.10,0003.95,0001.74
2021-12-10 08:19:00,,0809.2,5.01,0.00,23.9,23.1,00.0,32.9,25.7,13.9,0000.0,0014.98,0003.91,0001.71
2021-12-10 08:20:00,,0809.3,5.00,0.00,23.9,23.1,00.0,32.9,25.7,13.9,0000.0,0015.16,0003.97,0001.69
2021-12-10 08:21:00,,0809.3,5.01,0.00,23.9,23.1,00.0,32.9,25.7,13.9,0000.0,0014.82,0004.06,0001.68
2021-12-10 08:22:00,,0809.4,4.99,0.00,23.9,23.1,00.0,32.9,25.7,13.9,0000.0,0014.67,0004.04,0001.65
2021-12-10 08:23:00,,0809.4,5.00,0.00,23.9,23.0,00.0,32.9,25.7,13.9,0000.0,0014.18,0003.99,0001.65
2021-12-10 08:24:00,,0809.4,5.00,0.00,23.9,23.0,00.0,32.9,25.7,13.9,0000.0,0013.74,0003.97,0001.66
2021-12-10 08:25:00,,0809.4,5.01,0.00,23.9,23.0,00.0,32.9,25.7,13.9,0000.0,0014.06,0003.98,0001.65
2021-12-10 08:26:00,,0809.4,5.01,0.00,23.9,23.0,00.0,32.9,25.7,13.9,0000.0,0013.52,0003.95,0001.65
2021-12-10 08:27:00,,0809.4,5.00,0.00,23.9,23.0,00.0,32.9,25.6,13.9,0000.0,0013.35,0003.99,0001.65
2021-12-10 08:28:00,,0809.4,4.99,0.00,23.9,23.0,00.0,32.9,25.6,13.9,0000.0,0013.13,0004.03,0001.64
2021-12-10 08:29:00,,0809.4,5.00,0.00,23.9,23.0,00.0,32.9,25.6,13.9,0000.0,0013.70,0004.03,0001.63
2021-12-10 08:30:00,,0809.4,4.99,0.00,23.9,23.0,00.0,32.9,25.6,13.9,0000.0,0013.35,0004.01,0001.64
2021-12-10 08:31:00,,0809.4,5.01,0.00,23.9,23.0,00.0,32.9,25.6,13.9,0000.0,0013.76,0003.95,0001.64
2021-12-10 08:32:00,,0809.4,5.00,0.00,23.9,23.0,00.0,32.9,25.6,13.9,0000.0,0013.49,0003.84,0001.64
2021-12-10 08:33:00,,0809.4,4.98,0.00,23.9,23.0,00.0,32.9,25.6,14.0,0000.0,0013.14,0003.80,0001.65
2021-12-10 08:34:00,,0809.4,5.01,0.00,23.9,23.0,00.0,32.9,25.6,14.0,0000.0,0013.55,0003.81,0001.64
2021-12-10 08:35:00,,0809.4,5.00,0.00,23.9,23.0,00.0,32.9,25.6,14.0,0000.0,0013.72,0003.78,0001.63
2021-12-10 08:36:00,,0809.4,5.01,0.00,23.9,23.0,00.0,32.9,25.6,14.0,0000.0,0013.68,0003.77,0001.62
2021-12-10 08:37:00,,0809.4,5.01,0.00,23.9,23.0,00.0,32.9,25.6,14.0,0000.0,0014.64,0003.79,0001.61
2021-12-10 08:38:00,,0809.4,5.01,0.00,23.9,23.0,00.0,32.9,25.6,14.0,0000.0,0016.22,0003.77,0001.62
2021-12-10 08:39:00,,0809.4,5.00,0.00,23.9,23.0,00.0,32.9,25.6,14.1,0000.0,0017.14,0003.76,0001.64
2021-12-10 08:40:00,,0809.4,5.00,0.00,23.8,23.0,00.0,32.8,25.6,14.1,0000.0,0016.47,0003.78,0001.65
2021-12-10 08:41:00,,0809.3,5.01,0.00,23.8,23.0,00.0,32.8,25.6,14.1,0000.0,0016.38,0003.78,0001.65
2021-12-10 08:42:00,,0809.4,4.99,0.00,23.8,23.0,00.0,32.8,25.6,14.1,0000.0,0016.03,0003.78,0001.63
2021-12-10 08:43:00,,0809.4,5.01,0.00,23.8,23.0,00.0,32.8,25.6,14.1,0000.0,0016.67,0003.78,0001.61
2021-12-10 08:44:00,,0809.4,5.00,0.00,23.8,22.9,00.0,32.8,25.5,14.1,0000.0,0018.25,0003.86,0001.62
2021-12-10 08:45:00,,0809.5,5.01,0.00,23.8,22.9,00.0,32.8,25.5,14.2,0000.0,0018.12,0003.87,0001.62
2021-12-10 08:46:00,,0809.5,4.99,0.00,23.8,22.9,00.0,32.8,25.5,14.2,0000.0,0018.33,0003.86,0001.62
2021-12-10 08:47:00,,0809.6,5.00,0.00,23.8,22.9,00.0,32.8,25.5,14.2,0000.0,0018.71,0003.89,0001.61
2021-12-10 08:48:00,,0809.6,5.00,0.00,23.8,22.9,00.0,32.8,25.5,14.2,0000.0,0018.53,0003.86,0001.60
2021-12-10 08:49:00,,0809.5,4.99,0.00,23.8,22.9,00.0,32.8,25.5,14.2,0000.0,0017.37,0003.82,0001.59
2021-12-10 08:50:00,,0809.5,5.01,0.00,23.8,22.9,00.0,32.8,25.5,14.2,0000.0,0016.58,0003.78,0001.58
2021-12-10 08:51:00,,0809.5,5.00,0.00,23.7,22.9,00.0,32.8,25.5,14.2,0000.0,0017.99,0003.77,0001.56
2021-12-10 08:52:00,,0809.5,4.99,0.00,23.7,22.8,00.0,32.8,25.5,14.2,0000.0,0018.02,0003.81,0001.56
2021-12-10 08:53:00,,0809.6,5.00,0.00,23.7,22.8,00.0,32.7,25.5,14.2,0000.0,0019.00,0003.85,0001.56
2021-12-10 08:54:00,,0809.7,5.01,0.00,23.7,22.8,00.0,32.7,25.5,14.2,0000.0,0018.49,0003.84,0001.57
2021-12-10 08:55:00,,0809.8,5.01,0.00,23.7,22.8,00.0,32.7,25.5,14.2,0000.0,0017.51,0003.77,0001.57
2021-12-10 08:56:00,,0809.7,4.99,0.00,23.7,22.8,00.0,32.7,25.5,14.2,0000.0,0018.40,0003.74,0001.55
2021-12-10 08:57:00,,0809.7,5.01,0.00,23.7,22.8,00.0,32.7,25.5,14.2,0000.0,0018.39,0003.75,0001.55
2021-12-10 08:58:00,,0809.6,4.99,0.00,23.7,22.8,00.0,32.7,25.5,14.2,0000.0,0017.67,0003.73,0001.55
2021-12-10 08:59:00,,0809.6,5.00,0.00,23.7,22.8,00.0,32.7,25.4,14.2,0000.0,0017.22,0003.76,0001.55
